CAPE
0 0 0 0 0 0 0 0 0 0 0 0 0 0 0 0 0 0 0 0 0 0 0 0 0 0 0 0 0 0 0 0 0 0 0 0 0 0 0 0 0 0 0 0 0 0 0
0 0 0 0 0 0 0 0 0 0 0 0 0 0 0 0 0 0 0 0 0 0 0 0 0 0 0 0 0 0 0 0 0 0 0 0 0 0 0 0 0 0 0 0 0 0 0
0 0 0 0 0 0 0 0 0 0 0 0 0 0 0 0 0 0 0 0 0 0 0 0 0 0 0 0 0 0 0 0 0 0 0 0 0 0 0 0 0 0 0 0 0 0 0
0 0 0 0 0 0 0 0 0 0 0 0 0 0 0 0 0 0 0 0 0 0 0 0 0 0 0 0 0 0 0 0 0 0 0 0 0 0 0 0 0 0 0 0 0 0 0
0 0 0 0 0 0 0 0 0 0 0 0 0 0 0 0 0 0 0 0 0 0 0 0 0 0 0 0 0 0 0 0 0 0 0 0 0 0 0 0 0 0 0 0 0 0 0
0 0 0 0 0 0 0 0 0 0 0 0 0 0 0 0 0 0 0 0 0 0 0 0 0 0 0 0 0 0 0 0 0 0 0 0 0 0 0 0 0 0 0 0 0 0 0
0 0 0 0 0 0 0 0 0 0 0 0 0 0 0 0 0 0 0 0 0 0 0 0 0 0 0 0 0 0 0 0 0 0 0 0 0 0 0 0 0 0 0 0 0 0 0
0 0 0 0 0 0 0 0 0 0 0 0 0 0 0 0 0 0 0 0 0 0 0 0 0 0 0 0 0 0 0 0 0 0 0 0 0 0 0 0 0 0 0 0 0 0 0
0 0 0 0 0 0 0 0 0 0 0 0 0 0 0 0 0 0 0 0 0 0 0 0 0 0 0 0 0 0 0 0 0 0 0 0 0 0 0 0 0 0 0 0 0 0 0
0 0 0 0 0 0 0 0 0 0 0 0 0 0 0 0 0 0 0 0 0 0 0 0 0 0 0 0 0 0 0 0 0 0 0 0 0 0 0 0 0 0 0 0 0 0 0
0 0 0 0 0 0 0 0 0 0 0 0 0 0 0 0 0 0 0 0 0 0 0 0 0 0 0 0 0 0 0 0 0 0 0 0 0 0 0 0 0 0 0 0 0 0 0
0 0 0 0 0 0 0 0 0 0 0 0 0 0 0 0 0 0 0 0 0 0 0 0 0 0 0 0 0 0 0 0 0 0 0 0 0 0 0 0 0 0 0 0 0 0 0
1 0 0 0 0 0 0 0 0 0 0 0 0 0 0 0 0 0 0 0 0 0 0 0 0 0 0 0 0 0 0 0 0 0 0 0 0 0 0 0 0 0 0 0 0 0 0
1 1 0 0 0 0 0 0 0 0 0 0 0 0 0 0 0 0 0 0 0 0 0 0 0 0 0 0 0 0 0 0 0 0 0 0 0 0 0 0 0 0 0 0 0 0 0
1 1 1 1 0 0 0 0 0 0 0 0 0 0 0 0 0 0 0 0 0 0 0 0 0 0 0 0 0 0 0 0 0 0 0 0 0 0 0 0 0 0 0 0 0 0 0
0 0 0 1 0 0 0 0 0 0 0 0 0 0 0 0 0 0 0 0 0 0 0 0 0 0 0 0 0 0 0 0 0 0 0 0 0 0 0 0 0 0 0 0 0 0 0
0 0 1 3 1 0 0 0 0 0 0 0 0 0 0 0 0 0 0 0 0 0 0 0 0 0 0 0 0 0 0 0 0 0 0 0 0 0 0 0 0 0 0 0 0 0 0
0 0 1 0 1 1 1 0 0 0 0 0 0 0 0 0 0 0 0 0 0 0 0 0 0 0 0 0 0 0 0 0 0 0 0 0 0 0 0 0 0 0 0 0 0 0 0
0 0 2 1 0 1 1 0 0 0 0 0 0 0 0 0 0 0 0 0 0 0 0 0 0 0 0 0 0 0 0 0 0 0 0 0 0 0 0 0 0 0 0 0 0 0 0
0 0 1 2 0 0 1 0 0 0 0 0 0 0 0 0 0 0 0 0 0 0 0 0 0 0 0 0 0 0 0 0 0 0 0 0 0 0 0 0 0 0 0 0 0 0 0
2 0 0 0 0 0 2 1 0 0 0 0 0 0 0 0 0 0 0 0 0 0 0 0 0 0 0 0 0 0 0 0 0 0 0 0 0 0 0 0 0 0 0 3 1 4 10
0 1 0 0 0 1 0 1 1 0 0 0 0 0 0 0 0 0 0 0 0 0 0 0 0 0 0 0 0 0 0 0 0 0 0 0 0 0 0 0 0 0 0 8 18 16 36
1 0 1 0 0 0 1 4 1 0 0 0 0 0 0 0 0 0 0 0 0 0 0 0 0 0 0 0 0 0 0 0 0 0 0 0 0 0 0 0 0 0 0 1 3 2 43
1 1 0 0 0 0 1 2 6 0 0 0 0 0 0 0 0 0 0 0 0 0 0 0 0 0 0 0 0 0 0 0 0 0 0 0 0 0 0 0 1 0 0 7 26 15 36
2 1 1 0 1 0 2 1 5 1 0 0 0 0 0 0 0 0 0 0 0 0 0 0 0 0 0 0 0 0 0 0 0 0 0 0 0 0 0 19 6 36 0 21 9 2 46
2 0 2 1 1 2 2 1 0 2 0 0 0 0 0 0 0 0 0 0 0 0 0 0 0 0 0 0 0 0 0 0 0 0 0 5 5 33 45 1 0 70 78 38 89 0 1
4 2 2 2 2 1 2 1 2 7 0 0 0 0 0 0 0 0 0 0 0 0 0 0 0 0 0 0 0 0 0 0 0 0 0 51 57 51 60 10 30 111 217 248 2 9 36
4 3 3 2 2 3 2 0 0 5 1 0 0 0 0 0 0 0 0 0 0 0 0 0 0 0 0 0 0 0 0 0 14 53 98 63 42 39 21 0 0 280 413 94 7 221 189
6 2 3 3 2 2 3 0 3 3 1 0 0 0 0 0 0 0 0 0 0 0 0 0 0 0 0 0 0 0 0 0 32 3 0 36 3 22 12 9 129 71 283 337 362 241 215
CIN
-0 -0 -0 -0 -0 -0 -0 -0 -0 -0 -0 -0 -0 -0 -0 -0 -0 -0 -0 -0 -0 -0 -0 -0 -0 -0 -0 -0 -0 -0 -0 -0 -0 -0 -0 -0 -0 -0 -0 -0 -0 -0 -0 -0 -0 -0 -0
-0 -0 -0 -0 -0 -0 -0 -0 -0 -0 -0 -0 -0 -0 -0 -0 -0 -0 -0 -0 -0 -0 -0 -0 -0 -0 -0 -0 -0 -0 -0 -0 -0 -0 -0 -0 -0 -0 -0 -0 -0 -0 -0 -0 -0 -0 -0
-0 -0 -0 -0 -0 -0 -0 -0 -0 -0 -0 -0 -0 -0 -0 -0 -0 -0 -0 -0 -0 -0 -0 -0 -0 -0 -0 -0 -0 -0 -0 -0 -0 -0 -0 -0 -0 -0 -0 -0 -0 -0 -0 -0 -0 -0 -0
-0 -0 -0 -0 -0 -0 -0 -0 -0 -0 -0 -0 -0 -0 -0 -0 -0 -0 -0 -0 -0 -0 -0 -0 -0 -0 -0 -0 -0 -0 -0 -0 -0 -0 -0 -0 -0 -0 -0 -0 -0 -0 -0 -0 -0 -0 -0
-0 -0 -0 -0 -0 -0 -0 -0 -0 -0 -0 -0 -0 -0 -0 -0 -0 -0 -0 -0 -0 -0 -0 -0 -0 -0 -0 -0 -0 -0 -0 -0 -0 -0 -0 -0 -0 -0 -0 -0 -0 -0 -0 -0 -0 -0 -0
-0 -0 -0 -0 -0 -0 -0 -0 -0 -0 -0 -0 -0 -0 -0 -0 -0 -0 -0 -0 -0 -0 -0 -0 -0 -0 -0 -0 -0 -0 -0 -0 -0 -0 -0 -0 -0 -0 -0 -0 -0 -0 -0 -0 -0 -0 -0
-0 -0 -0 -0 -0 -0 -0 -0 -0 -0 -0 -0 -0 -0 -0 -0 -0 -0 -0 -0 -0 -0 -0 -0 -0 -0 -0 -0 -0 -0 -0 -0 -0 -0 -0 -0 -0 -0 -0 -0 -0 -0 -0 -0 -0 -0 -0
-0 -0 -0 -0 -0 -0 -0 -0 -0 -0 -0 -0 -0 -0 -0 -0 -0 -0 -0 -0 -0 -0 -0 -0 -0 -0 -0 -0 -0 -0 -0 -0 -0 -0 -0 -0 -0 -0 -0 -0 -0 -0 -0 -0 -0 -0 -0
-0 -0 -0 -0 -0 -0 -0 -0 -0 -0 -0 -0 -0 -0 -0 -0 -0 -0 -0 -0 -0 -0 -0 -0 -0 -0 -0 -0 -0 -0 -0 -0 -0 -0 -0 -0 -0 -0 -0 -0 -0 -0 -0 -0 -0 -0 -0
-0 -0 -0 -0 -0 -0 -0 -0 -0 -0 -0 -0 -0 -0 -0 -0 -0 -0 -0 -0 -0 -0 -0 -0 -0 -0 -0 -0 -0 -0 -0 -0 -0 -0 -0 -0 -0 -0 -0 -0 -0 -0 -0 -0 -0 -0 -0
-0 -0 -0 -0 -0 -0 -0 -0 -0 -0 -0 -0 -0 -0 -0 -0 -0 -0 -0 -0 -0 -0 -0 -0 -0 -0 -0 -0 -0 -0 -0 -0 -0 -0 -0 -0 -0 -0 -0 -0 -0 -0 -0 -0 -0 -0 -0
-0 -0 -0 -0 -0 -0 -0 -0 -0 -0 -0 -0 -0 -0 -0 -0 -0 -0 -0 -0 -0 -0 -0 -0 -0 -0 -0 -0 -0 -0 -0 -0 -0 -0 -0 -0 -0 -0 -0 -0 -0 -0 -0 -0 -0 -0 -0
-0 -0 -0 -0 -0 -0 -0 -0 -0 -0 -0 -0 -0 -0 -0 -0 -0 -0 -0 -0 -0 -0 -0 -0 -0 -0 -0 -0 -0 -0 -0 -0 -0 -0 -0 -0 -0 -0 -0 -0 -0 -0 -0 -0 -0 -0 -0
-1 -0 -1 -0 -0 -0 -0 -0 -0 -0 -0 -0 -0 -0 -0 -0 -0 -0 -0 -0 -0 -0 -0 -0 -0 -0 -0 -0 -0 -0 -0 -0 -0 -0 -0 -0 -0 -0 -0 -0 -0 -0 -0 -0 -0 -0 -0
-9 -1 -0 -1 -0 -0 -0 -0 -0 -0 -0 -0 -0 -0 -0 -0 -0 -0 -0 -0 -0 -0 -0 -0 -0 -0 -0 -0 -0 -0 -0 -0 -0 -0 -0 -0 -0 -0 -0 -0 -0 -0 -0 -0 -0 -0 -0
-0 -0 -0 -2 -1 -0 -0 -0 -0 -0 -0 -0 -0 -0 -0 -0 -0 -0 -0 -0 -0 -0 -0 -0 -0 -0 -0 -0 -0 -0 -0 -0 -0 -0 -0 -0 -0 -0 -0 -0 -0 -0 -0 -0 -0 -0 -0
-0 -0 -0 -1 -1 -0 -0 -0 -0 -0 -0 -0 -0 -0 -0 -0 -0 -0 -0 -0 -0 -0 -0 -0 -0 -0 -0 -0 -0 -0 -0 -0 -0 -0 -0 -0 -0 -0 -0 -0 -0 -0 -0 -0 -0 -0 -0
-0 -0 -0 -3 -2 -2 -0 -0 -0 -0 -0 -0 -0 -0 -0 -0 -0 -0 -0 -0 -0 -0 -0 -0 -0 -0 -0 -0 -0 -0 -0 -0 -0 -0 -0 -0 -0 -0 -0 -0 -0 -0 -0 -0 -0 -0 -0
-0 -0 -0 -0 -0 -3 -1 -0 -0 -0 -0 -0 -0 -0 -0 -0 -0 -0 -0 -0 -0 -0 -0 -0 -0 -0 -0 -0 -0 -0 -0 -0 -0 -0 -0 -0 -0 -0 -0 -0 -0 -0 -0 -0 -0 -0 -0
-0 -0 -0 -0 -0 -1 -0 -0 -0 -0 -0 -0 -0 -0 -0 -0 -0 -0 -0 -0 -0 -0 -0 -0 -0 -0 -0 -0 -0 -0 -0 -0 -0 -0 -0 -0 -0 -0 -0 -0 -0 -0 -0 -0 -0 -0 -0
-0 -0 -0 -0 -0 -0 -0 -1 -0 -0 -0 -0 -0 -0 -0 -0 -0 -0 -0 -0 -0 -0 -0 -0 -0 -0 -0 -0 -0 -0 -0 -0 -0 -0 -0 -0 -0 -0 -0 -0 -0 -0 -0 -2 -4 -34 -26
-1 -0 -0 -0 -0 -0 -0 -0 -0 -0 -0 -0 -0 -0 -0 -0 -0 -0 -0 -0 -0 -0 -0 -0 -0 -0 -0 -0 -0 -0 -0 -0 -0 -0 -0 -0 -0 -0 -0 -0 -0 -0 -0 -24 -39 -58 -63
-0 -0 -0 -0 -0 -0 -0 -3 -1 -0 -0 -0 -0 -0 -0 -0 -0 -0 -0 -0 -0 -0 -0 -0 -0 -0 -0 -0 -0 -0 -0 -0 -0 -0 -0 -0 -0 -0 -0 -0 -0 -0 -0 -18 -42 -102 -101
-0 -0 -0 -1 -1 -0 -0 -19 -1 -0 -0 -0 -0 -0 -0 -0 -0 -0 -0 -0 -0 -0 -0 -0 -0 -0 -0 -0 -0 -0 -0 -0 -0 -0 -0 -0 -0 -0 -0 -0 -29 -0 -0 -29 -50 -71 -87
-0 -0 -0 -0 -0 -0 -0 -0 -2 -0 -0 -0 -0 -0 -0 -0 -0 -0 -0 -0 -0 -0 -0 -0 -0 -0 -0 -0 -0 -0 -0 -0 -0 -0 -0 -0 -0 -0 -0 -53 -33 -33 -0 -69 -70 -9 -73
-0 -0 -0 -0 -0 -0 -0 -0 -0 -1 -0 -0 -0 -0 -0 -0 -0 -0 -0 -0 -0 -0 -0 -0 -0 -0 -0 -0 -0 -0 -0 -0 -0 -0 -0 -6 -9 -45 -38 -12 -0 -43 -81 -137 -86 -0 -92
-3 -1 -0 -0 -0 -0 -0 -0 -21 -0 -0 -0 -0 -0 -0 -1 -0 -0 -0 -0 -0 -0 -0 -0 -0 -0 -0 -0 -0 -0 -0 -0 -0 -0 -0 -24 -28 -20 -35 -30 -34 -62 -48 -96 -24 -18 -75
-3 -3 -2 -0 -0 -0 -0 -0 -1 -1 -0 -0 -0 -0 -0 -0 -0 -0 -0 -0 -0 -0 -0 -0 -0 -0 -0 -0 -0 -0 -0 -0 -32 -52 -36 -35 -34 -27 -63 -0 -0 -47 -17 -17 -48 -58 -41
-9 -5 -3 -2 -0 -0 -0 -0 -7 -0 -0 -0 -0 -0 -0 -0 -0 -0 -0 -0 -0 -0 -0 -0 -0 -0 -0 -0 -0 -0 -0 -0 -75 -36 -12 -25 -9 -30 -48 -43 -101 -100 -41 -32 -47 -39 -45
Wind_Speed
23 23 23 24 24 25 26 27 27 27 27 28 28 27 27 26 24 23 22 21 19 18 18 16 13 12 11 12 9 9 13 15 13 12 11 11 10 9 7 5 5 11 8 14 25 27 26
23 24 24 25 25 26 27 28 28 28 29 29 29 28 28 26 25 24 23 22 20 20 19 14 9 10 13 11 11 13 13 14 11 10 10 10 10 8 5 3 5 8 29 31 29 26 26
24 25 25 26 26 27 28 29 29 30 31 31 30 30 28 27 27 26 25 23 23 21 16 9 11 13 13 9 13 13 12 12 13 10 8 8 8 9 10 11 13 31 33 31 19 1 23
26 26 26 27 28 28 29 30 30 31 32 32 32 31 28 29 29 28 26 25 22 16 10 14 14 14 12 11 12 10 8 8 10 11 10 9 7 7 12 13 23 24 22 20 8 21 18
27 27 27 28 29 30 30 31 32 31 32 33 33 31 30 31 31 29 28 26 20 18 17 15 16 15 14 8 13 10 9 9 10 7 7 6 7 10 17 20 22 17 8 12 18 30 31
27 28 28 28 29 30 31 32 33 32 33 33 32 32 31 32 31 29 29 24 17 18 16 15 14 16 13 18 14 14 10 7 7 14 14 8 13 9 13 13 12 13 12 13 11 36 35
27 28 29 29 30 31 32 32 33 34 34 34 33 34 33 32 30 28 28 19 22 19 19 12 13 14 5 18 16 14 14 13 14 17 15 17 11 4 5 3 4 7 9 13 24 35 35
28 28 29 30 31 31 32 33 34 35 34 34 35 35 35 34 30 26 24 22 22 20 23 13 1 5 0 10 16 13 12 13 14 14 16 16 5 1 9 8 9 8 11 10 23 33 37
28 29 30 30 31 32 33 33 34 35 35 35 36 36 37 36 28 24 22 25 26 25 21 20 13 12 12 9 13 18 8 15 13 11 9 8 6 20 17 15 11 15 15 23 31 35 37
29 30 30 31 32 33 33 34 35 36 36 36 37 37 37 36 21 26 21 29 29 23 22 18 15 16 11 14 16 12 6 16 20 19 21 18 20 28 30 26 24 26 24 30 34 36 33
31 31 32 32 33 33 34 35 36 37 37 38 38 38 38 31 26 22 24 30 29 18 22 12 14 14 14 12 17 13 11 17 15 17 18 13 27 34 29 28 30 25 28 29 29 30 32
31 32 33 33 34 34 35 36 37 38 39 40 40 40 38 24 23 18 28 30 19 19 20 14 13 15 17 15 15 15 12 16 20 19 18 16 22 23 26 28 29 29 33 31 30 28 29
32 33 33 34 34 35 36 37 38 39 40 41 41 39 35 22 21 22 28 20 18 19 20 18 17 19 21 23 20 11 14 18 19 19 19 21 19 24 32 34 31 37 36 34 28 30 26
33 33 34 35 35 36 37 38 39 41 41 42 42 38 24 16 18 22 22 17 17 19 19 20 21 24 20 20 17 19 19 22 22 17 18 21 22 27 31 30 29 29 26 26 31 32 32
33 33 34 35 36 36 37 38 39 40 41 42 41 32 23 17 16 17 19 15 16 19 19 22 24 21 22 23 21 21 21 21 20 20 20 24 23 28 29 34 27 28 30 24 27 28 29
34 34 35 35 35 36 37 37 39 40 41 41 35 30 21 16 14 19 18 15 17 19 19 22 21 20 23 24 22 22 20 20 19 22 21 24 28 26 30 32 23 26 25 26 28 30 31
34 34 34 35 35 35 35 36 37 38 40 36 28 25 17 15 14 19 17 15 20 20 19 20 21 21 21 19 22 23 19 20 21 23 22 24 25 29 31 29 31 29 25 24 25 24 28
33 34 34 34 34 34 34 34 34 36 37 28 24 23 17 19 19 17 16 17 28 24 20 21 19 21 22 23 22 21 21 18 26 22 23 19 23 29 32 28 19 19 25 27 31 31 25
34 34 34 34 34 34 33 33 32 32 31 27 28 23 20 15 18 20 23 23 21 25 25 18 20 20 22 23 24 24 26 27 29 21 19 20 24 33 33 25 23 23 31 32 28 25 27
34 35 35 34 34 33 33 32 31 30 29 24 22 22 20 15 16 21 24 22 25 25 21 23 23 22 24 26 23 24 29 21 22 18 22 21 21 24 27 28 28 32 35 37 33 32 33
35 35 34 34 34 33 32 31 30 29 28 23 19 19 19 22 23 25 23 22 25 25 21 24 26 23 25 24 24 24 27 26 24 20 23 23 25 25 26 29 29 31 34 33 29 26 27
35 35 35 34 33 32 32 31 28 28 28 21 22 22 23 26 25 26 23 22 26 28 30 33 23 24 23 21 22 27 27 26 23 25 27 25 28 31 33 28 28 31 30 28 26 27 27
35 35 35 34 34 33 31 31 28 26 24 22 21 22 21 23 24 25 21 27 32 30 27 19 21 23 27 23 26 24 24 26 27 29 28 27 28 28 28 27 29 29 26 26 25 24 26
35 35 35 34 33 33 31 30 27 24 21 22 22 23 24 26 25 24 27 29 29 29 28 28 26 26 26 27 27 28 33 32 30 29 24 23 20 21 28 28 29 25 23 22 25 23 24
35 35 34 34 33 33 32 30 28 23 21 22 22 22 24 27 26 29 28 28 32 28 26 24 27 29 26 24 25 29 34 29 24 22 22 12 16 23 24 24 25 23 22 25 27 30 23
35 35 34 33 32 32 32 30 29 25 21 21 23 21 23 25 26 24 29 27 26 29 27 24 29 27 23 19 21 28 29 25 21 23 23 16 15 16 20 27 23 21 21 17 20 28 19
34 34 33 33 32 31 31 30 28 25 21 21 23 19 23 26 28 27 26 25 24 24 26 25 26 24 22 20 22 24 27 22 24 28 27 19 24 26 25 21 26 19 19 17 25 25 15
34 33 33 32 32 31 31 31 29 27 21 20 24 23 22 26 31 28 27 25 26 22 23 23 26 21 22 21 22 23 22 20 22 23 25 25 23 23 22 26 27 20 22 22 20 21 14
32 33 33 32 32 31 30 30 29 29 22 20 23 19 22 24 25 28 33 29 24 22 23 22 20 22 20 20 20 22 22 23 23 24 24 24 23 29 18 19 25 22 24 24 21 19 13
Wind_Direction
319 316 316 317 318 319 319 320 320 318 316 315 313 310 308 302 296 292 287 283 277 270 266 256 241 221 77 76 134 115 55 51 58 85 116 111 110 98 133 97 207 236 239 253 268 271 266
317 317 317 318 320 321 321 321 319 319 318 316 313 310 307 301 297 293 289 283 275 272 263 239 186 120 69 70 106 95 78 54 64 89 91 105 107 99 154 181 216 19 282 284 275 264 264
319 319 319 320 321 322 323 323 321 320 321 319 316 314 307 302 299 295 290 283 280 271 250 182 93 64 52 122 88 94 88 81 75 86 92 134 126 55 29 19 20 309 304 286 249 102 320
320 321 320 321 323 324 324 324 323 323 323 322 320 315 308 305 302 298 293 288 278 256 59 48 58 46 66 81 59 94 94 97 80 79 110 132 130 42 16 15 348 347 354 1 31 267 354
320 321 322 323 324 325 325 325 325 323 323 324 321 314 310 308 306 301 297 292 289 21 27 41 23 33 42 219 51 63 62 69 51 93 95 119 60 19 3 356 356 14 43 21 342 336 330
321 322 323 324 324 324 326 325 324 322 321 321 317 314 312 310 307 305 304 308 19 19 18 16 15 15 36 18 37 28 44 77 55 6 358 24 7 25 15 20 32 25 14 3 285 307 327
321 323 325 325 325 325 325 323 322 323 322 319 318 317 314 311 306 307 320 0 347 353 354 8 7 358 25 357 10 22 27 25 4 349 4 358 12 71 36 10 297 325 318 270 263 282 328
321 322 323 323 323 322 322 321 322 321 320 318 318 318 317 313 305 310 355 3 359 355 340 355 325 2 148 9 3 10 33 25 14 12 4 359 26 324 353 334 323 298 315 301 330 327 327
320 320 320 319 319 319 320 319 319 319 319 318 318 318 319 314 303 347 355 346 337 342 348 351 12 8 8 29 6 342 56 13 8 5 12 3 339 344 351 357 356 353 354 347 337 333 326
316 315 315 316 316 317 318 318 318 318 317 318 318 318 319 316 345 332 348 325 324 352 340 355 7 7 21 12 2 10 51 1 351 344 336 351 354 335 330 345 348 343 342 337 333 333 339
315 315 314 314 314 315 316 317 317 318 317 317 317 317 317 325 333 337 338 319 326 360 329 12 10 9 4 10 351 4 18 0 3 360 350 3 340 327 334 339 344 349 341 339 342 342 343
315 315 315 315 315 315 316 317 317 317 317 316 314 314 320 343 338 346 326 319 351 339 329 2 10 354 348 348 344 347 356 344 346 344 347 345 348 359 352 342 347 348 336 337 340 343 342
313 312 312 312 312 313 313 314 315 315 314 312 309 307 316 344 342 341 320 342 341 336 338 346 345 341 338 331 336 350 341 338 340 340 339 332 340 343 344 335 335 334 336 337 341 341 338
314 314 313 313 313 314 315 316 316 316 314 312 308 306 341 350 345 335 340 344 332 339 341 345 334 328 339 334 339 343 335 330 342 350 343 337 337 341 344 345 340 340 347 344 337 338 337
313 315 314 314 314 315 316 316 316 316 314 313 312 331 339 346 360 355 337 334 337 338 342 332 325 333 340 338 335 340 339 341 343 342 337 332 331 333 341 336 344 340 337 344 338 339 337
311 312 313 313 314 315 316 317 317 317 315 315 323 325 329 347 3 343 338 332 334 336 342 335 330 332 326 329 336 336 340 349 347 348 345 335 327 336 337 340 345 341 344 339 342 337 337
312 311 310 312 313 314 315 316 318 318 316 317 330 325 331 347 351 336 329 329 332 332 342 337 332 326 326 330 331 331 335 343 345 342 347 341 335 331 336 340 334 334 344 348 346 341 337
313 313 311 309 310 312 313 315 317 319 318 332 329 322 325 332 327 331 328 330 318 322 331 329 332 329 328 324 323 325 324 334 338 338 335 343 337 330 331 337 344 357 345 345 336 333 335
311 310 310 309 308 309 312 314 317 321 330 327 317 321 317 324 321 321 320 319 325 323 320 331 325 329 328 325 324 322 318 318 326 340 341 342 334 327 329 343 340 338 332 333 335 334 330
309 308 308 308 308 308 309 312 315 319 324 328 320 312 318 326 329 321 316 316 313 317 325 326 323 326 323 316 318 319 317 330 340 347 344 344 338 333 328 329 330 326 324 324 326 323 326
307 307 308 307 306 306 307 308 311 313 316 321 316 310 316 303 305 310 317 316 313 311 320 322 320 319 321 319 321 321 322 322 322 329 331 335 323 325 326 326 326 324 324 328 331 333 330
305 305 305 306 306 305 305 304 309 309 309 311 303 305 304 301 305 307 310 310 311 311 313 305 316 322 327 325 325 318 322 323 322 319 319 324 317 320 318 323 324 324 327 330 332 331 330
304 303 303 303 304 303 302 302 302 306 309 301 302 303 303 299 303 304 303 308 304 313 313 320 318 318 314 316 323 324 323 319 314 314 314 315 315 313 313 323 324 323 326 329 331 334 333
301 301 301 301 301 301 299 299 299 302 303 297 297 300 296 290 296 299 300 306 307 309 312 313 316 313 314 317 318 315 315 313 308 304 300 302 306 312 312 321 315 329 337 336 331 336 341
301 299 298 298 299 298 297 295 296 296 299 294 294 294 291 288 293 293 297 301 301 307 311 321 323 320 317 316 319 319 318 321 322 318 314 285 305 310 309 314 321 324 331 331 331 325 338
297 298 296 296 296 296 295 291 292 291 292 294 289 290 289 289 287 294 298 299 302 304 304 313 316 321 325 327 323 317 317 322 323 325 336 325 315 311 316 315 319 332 339 351 349 330 347
295 295 294 294 293 293 292 289 288 288 288 287 288 286 286 286 287 292 293 297 303 307 306 311 316 319 326 322 318 318 315 314 313 314 316 311 307 305 308 309 314 331 341 357 326 329 1
293 292 291 291 290 290 289 286 282 284 284 284 283 282 283 286 285 289 292 293 296 302 305 312 314 316 321 316 316 321 319 316 317 318 317 311 313 314 315 313 317 337 329 327 345 340 357
292 290 289 287 286 285 286 285 279 279 278 280 279 289 291 283 288 291 291 288 287 287 299 308 306 310 314 318 318 317 314 313 314 311 330 309 316 308 321 325 323 330 328 328 332 337 352